Weather History for Madison, SD

Change the Weather History Date:

Friday, February 15, 2013

  Actual Average Record
Temperature  
Mean Temperature 10 °F -  
Max Temperature 17 °F 26 °F 41 °F (2011)
Min Temperature 3 °F 8 °F 0 °F (2014)
Degree Days  
Heating Degree Days 55    
Moisture  
Dew Point 11 °F    
Average Humidity 98    
Maximum Humidity 100    
Minimum Humidity 86    
Precipitation  
Precipitation 0.39 in - - ()
Sea Level Pressure  
Sea Level Pressure 30.27 in    
Wind  
Wind Speed 7 mph (NW)    
Max Wind Speed 10 mph    
Max Gust Speed -    
Visibility 9 miles    
Events Rain , Snow    
Averages and records for this station are not official NWS values.
T = Trace of Precipitation, MM = Missing Value Source: NWS Daily Summary

Daily Weather History Graph

Daily Weather History Graph

Search for Another Location

Airport:

Trip Planner

Search our weather history database for the weather conditions in past years. The results will help you decide how hot, cold, wet, or windy it might be!

Date:

Astronomy

Feb. 15, 2013 Rise Set
Actual Time 7:27 AM CST 5:58 PM CST
Civil Twilight 6:57 AM CST 6:28 PM CST
Nautical Twilight 6:23 AM CST 7:01 PM CST
Astronomical Twilight 5:50 AM CST 7:35 PM CST
Moon 9:50 AM CST (2/15) No Moon Set
Length of Visible Light 11h 30m
Length of Day
10h 31m
Waxing Crescent, 30% of the Moon is Illuminated
Feb 15
Waxing Crescent
Feb 17
First Quarter
Feb 25
Full
Mar 4
Last Quarter
Mar 11
New

Hourly Weather History & Observations

Time (CST) Temp. Windchill Dew Point Humidity Pressure Visibility Wind Dir Wind Speed Gust Speed Precip Events Conditions
12:00 AM 6.8 °F -5.9 °F 6.8 °F 100% 30.23 in 10.0 mi NW 8.1 mph - N/A   Clear
12:20 AM 8.6 °F -4.7 °F 8.6 °F 100% 30.24 in 10.0 mi NW 9.2 mph - N/A   Partly Cloudy
12:40 AM 8.6 °F -5.5 °F 8.6 °F 100% 30.24 in 10.0 mi NW 10.4 mph - N/A   Mostly Cloudy
1:00 AM 8.6 °F -5.5 °F 8.6 °F 100% 30.24 in 10.0 mi NW 10.4 mph - N/A   Mostly Cloudy
1:20 AM 8.6 °F -4.7 °F 8.6 °F 100% 30.24 in 10.0 mi NW 9.2 mph - N/A   Mostly Cloudy
1:40 AM 8.6 °F -4.7 °F 8.6 °F 100% 30.24 in 10.0 mi NW 9.2 mph - N/A   Mostly Cloudy
2:00 AM 6.8 °F -5.9 °F 6.8 °F 100% 30.24 in 10.0 mi WNW 8.1 mph - N/A   Partly Cloudy
2:20 AM 8.6 °F -4.7 °F 8.6 °F 100% 30.24 in 10.0 mi WNW 9.2 mph - N/A   Partly Cloudy
2:40 AM 8.6 °F -4.7 °F 8.6 °F 100% 30.24 in 10.0 mi WNW 9.2 mph - N/A   Scattered Clouds
3:00 AM 8.6 °F -4.7 °F 8.6 °F 100% 30.24 in 10.0 mi WNW 9.2 mph - N/A   Mostly Cloudy
3:20 AM 8.6 °F -3.7 °F 8.6 °F 100% 30.24 in 10.0 mi WNW 8.1 mph - N/A   Partly Cloudy
3:40 AM 8.6 °F -4.7 °F 8.6 °F 100% 30.24 in 10.0 mi WNW 9.2 mph - N/A   Partly Cloudy
4:00 AM 6.8 °F -5.9 °F 6.8 °F 100% 30.25 in 10.0 mi WNW 8.1 mph - N/A   Partly Cloudy
4:20 AM 6.8 °F -3.5 °F 6.8 °F 100% 30.25 in 10.0 mi NW 5.8 mph - N/A   Clear
4:40 AM 5.0 °F -9.1 °F 5.0 °F 100% 30.25 in 10.0 mi NW 9.2 mph - N/A   Clear
5:00 AM 5.0 °F -4.1 °F 5.0 °F 100% 30.24 in 10.0 mi WNW 4.6 mph - N/A   Partly Cloudy
5:20 AM 6.8 °F -6.9 °F 6.8 °F 100% 30.25 in 10.0 mi NW 9.2 mph - N/A   Mostly Cloudy
5:40 AM 6.8 °F -3.5 °F 6.8 °F 100% 30.25 in 10.0 mi NW 5.8 mph - N/A   Overcast
6:00 AM 6.8 °F -3.5 °F 6.8 °F 100% 30.26 in 10.0 mi WNW 5.8 mph - N/A   Overcast
6:20 AM 8.6 °F 0.1 °F 8.6 °F 100% 30.25 in 10.0 mi NW 4.6 mph - N/A   Overcast
6:40 AM 8.6 °F 2.0 °F 8.6 °F 100% 30.25 in 10.0 mi NW 3.5 mph - N/A   Overcast
7:00 AM 8.6 °F 2.0 °F 8.6 °F 100% 30.25 in 10.0 mi NNW 3.5 mph - N/A   Overcast
7:20 AM 10.4 °F 0.8 °F 10.4 °F 100% 30.26 in 10.0 mi WNW 5.8 mph - N/A Snow Light Snow
7:40 AM 10.4 °F 2.2 °F 10.4 °F 100% 30.26 in 10.0 mi WNW 4.6 mph - N/A Snow Light Snow
8:00 AM 10.4 °F 4.0 °F 10.4 °F 100% 30.27 in 10.0 mi WNW 3.5 mph - N/A Snow Light Snow
8:20 AM 12.2 °F - 12.2 °F 100% 30.27 in 4.0 mi Calm Calm - 0.02 in Snow Light Snow
8:40 AM 12.2 °F - 12.2 °F 100% 30.27 in 2.5 mi Calm Calm - 0.05 in Snow Light Snow
9:00 AM 12.2 °F - 12.2 °F 100% 30.27 in 9.0 mi Calm Calm - 0.07 in Snow Light Snow
9:20 AM 14.0 °F - 14.0 °F 100% 30.28 in 8.0 mi Calm Calm - N/A Snow Light Snow
9:40 AM 14.0 °F - 14.0 °F 100% 30.28 in 4.0 mi Calm Calm - 0.03 in Snow Light Snow
10:00 AM 14.0 °F 6.5 °F 14.0 °F 100% 30.28 in 1.8 mi NNE 4.6 mph - 0.09 in Snow Light Snow
10:20 AM 14.0 °F 6.5 °F 14.0 °F 100% 30.28 in 2.5 mi NE 4.6 mph - 0.07 in Snow Light Snow
10:40 AM 15.8 °F 7.2 °F 15.8 °F 100% 30.28 in 2.5 mi NNE 5.8 mph - 0.12 in Snow Light Snow
11:00 AM 15.8 °F 6.1 °F 15.8 °F 100% 30.29 in 5.0 mi NNE 6.9 mph - 0.14 in Snow Light Snow
11:40 AM 15.8 °F 5.1 °F 15.8 °F 100% 30.30 in 10.0 mi NNE 8.1 mph - N/A Snow Light Snow
12:00 PM 15.8 °F 4.2 °F 15.8 °F 100% 30.30 in 10.0 mi NNE 9.2 mph - 0.01 in Snow Light Snow
12:20 PM 17.6 °F 6.4 °F 17.6 °F 100% 30.30 in 10.0 mi NNE 9.2 mph - N/A Snow Light Snow
12:40 PM 17.6 °F 6.4 °F 17.6 °F 100% 30.30 in 10.0 mi NNE 9.2 mph - N/A Rain Light Freezing Rain
1:00 PM 17.6 °F 6.4 °F 17.6 °F 100% 30.30 in 10.0 mi NNE 9.2 mph - N/A   Mostly Cloudy
1:15 PM 17.6 °F 6.4 °F 17.6 °F 100% 30.30 in 10.0 mi NNE 9.2 mph - N/A   Scattered Clouds
1:40 PM 17.6 °F 5.7 °F 15.8 °F 93% 30.30 in 10.0 mi NNE 10.4 mph - N/A   Scattered Clouds
2:00 PM 17.6 °F 6.4 °F 14.0 °F 86% 30.30 in 10.0 mi North 9.2 mph - N/A   Partly Cloudy
2:20 PM 15.8 °F 3.4 °F 14.0 °F 93% 30.30 in 10.0 mi NNE 10.4 mph - N/A   Clear
2:40 PM 17.6 °F 6.4 °F 14.0 °F 86% 30.30 in 10.0 mi North 9.2 mph - N/A   Clear
3:00 PM 17.6 °F 7.3 °F 14.0 °F 86% 30.30 in 10.0 mi North 8.1 mph - N/A   Clear
3:20 PM 17.6 °F 8.2 °F 14.0 °F 86% 30.30 in 10.0 mi NNE 6.9 mph - N/A   Clear
3:40 PM 17.6 °F 6.4 °F 14.0 °F 86% 30.31 in 10.0 mi North 9.2 mph - N/A   Scattered Clouds
4:00 PM 17.6 °F 5.7 °F 14.0 °F 86% 30.31 in 10.0 mi NNW 10.4 mph - N/A Snow Light Snow
4:20 PM 15.8 °F 4.2 °F 14.0 °F 93% 30.31 in 10.0 mi NNW 9.2 mph - N/A Snow Light Snow
4:40 PM 15.8 °F 3.4 °F 14.0 °F 93% 30.32 in 10.0 mi NNW 10.4 mph - N/A   Overcast
5:00 PM 15.8 °F 4.2 °F 14.0 °F 93% 30.32 in 10.0 mi NNW 9.2 mph - N/A Snow Light Snow
5:20 PM 12.2 °F 0.7 °F 12.2 °F 100% 30.32 in 10.0 mi NNW 8.1 mph - N/A   Scattered Clouds
5:40 PM 10.4 °F -0.4 °F 10.4 °F 100% 30.31 in 10.0 mi NW 6.9 mph - N/A   Scattered Clouds
6:00 PM 10.4 °F -1.5 °F 10.4 °F 100% 30.31 in 10.0 mi WNW 8.1 mph - N/A   Clear
6:20 PM 8.6 °F -2.6 °F 8.6 °F 100% 30.31 in 10.0 mi NW 6.9 mph - N/A   Clear
6:40 PM 8.6 °F -1.3 °F 8.6 °F 100% 30.30 in 10.0 mi WNW 5.8 mph - N/A   Clear
7:00 PM 10.4 °F -1.5 °F 10.4 °F 100% 30.30 in 10.0 mi WNW 8.1 mph - N/A   Clear
7:20 PM 8.6 °F -3.7 °F 8.6 °F 100% 30.30 in 10.0 mi WNW 8.1 mph - N/A   Clear
7:40 PM 8.6 °F - 8.6 °F 100% 30.29 in 10.0 mi North - - N/A   Clear
8:00 PM 8.6 °F -3.7 °F 8.6 °F 100% 30.29 in 10.0 mi WNW 8.1 mph - N/A   Clear
8:20 PM 8.6 °F -1.3 °F 8.6 °F 100% 30.29 in 10.0 mi WNW 5.8 mph - N/A   Clear
8:40 PM 6.8 °F -2.0 °F 6.8 °F 100% 30.29 in 10.0 mi West 4.6 mph - N/A   Clear
9:00 PM 6.8 °F -0.1 °F 6.8 °F 100% 30.28 in 10.0 mi West 3.5 mph - N/A   Clear
9:20 PM 5.0 °F - 5.0 °F 100% 30.28 in 10.0 mi Calm Calm - N/A   Clear
9:40 PM 3.2 °F -7.8 °F 3.2 °F 100% 30.27 in 8.0 mi NW 5.8 mph - N/A   Mostly Cloudy
10:00 PM 5.0 °F -5.6 °F 5.0 °F 100% 30.26 in 10.0 mi WNW 5.8 mph - N/A   Overcast
10:20 PM 10.4 °F -1.5 °F 10.4 °F 100% 30.26 in 10.0 mi West 8.1 mph - N/A   Overcast
10:40 PM 10.4 °F 0.8 °F 10.4 °F 100% 30.25 in 10.0 mi West 5.8 mph - N/A   Overcast
11:00 PM 10.4 °F 0.8 °F 10.4 °F 100% 30.24 in 10.0 mi West 5.8 mph - N/A   Overcast
11:20 PM 10.4 °F 0.8 °F 10.4 °F 100% 30.24 in 4.0 mi West 5.8 mph - N/A   Overcast
11:40 PM 10.4 °F 0.8 °F 10.4 °F 100% 30.23 in 5.0 mi SW 5.8 mph - N/A   Overcast